Tracking 29040 objects as of 17-Jun-2024
HD Live streaming from Space Station
objects crossing your sky now

STARLINK-3928

Track STARLINK-3928 now!
10-day predictions
STARLINK-3928 is classified as:


NORAD ID: 52606
Int'l Code: 2022-052J
Perigee: 546.1 km
Apogee: 547.7 km
Inclination: 53.2 °
Period: 95.4 minutes
Semi major axis: 6917 km
RCS: Unknown
Launch date: May 14, 2022
Source: United States (US)
Launch site: AIR FORCE EASTERN TEST RANGE (AFETR)
Your satellite tracking list
Your tracking list is empty




NASA's NSSDC Master Catalog

Two Line Element Set (TLE):
1 52606U 22052J   24168.45048401  .00001347  00000-0  10270-3 0  9995
2 52606  53.2152 232.8657 0001156  91.9407 268.1717 15.08842433115563
Source of the keplerian elements: AFSPC